Torna al catalogo

KUIPER-00124

AttivoComunicazioniLEO
NORAD 65953·PAYLOAD·🇺🇸 United States

Lanciato Oct 14, 2025 da Cape Canaveral Space Force Station

Loading…

Prossimi Passaggi (prossime 24 ore)

TLE

AggiornatoSource: CelesTrak SupGP

Epoca: Sep 14, 2026, 19:51 UTC

1 65953C 25228G   26257.82721065  .00002797  00000+0  36611-3 0  2571
2 65953  51.8973 239.1850 0000820  47.1077 181.8691 14.79924143    16

Traccia KUIPER-00124 in tempo reale con AllMySat

Download on the App Store